Location: ??????????
(44.2167°N, 135.5333°E)
Time: 21:35:22
(UTC+00:00)

Cosmos 2251 Rocket - Pass Details

Date: 15 June 2025
Orbit: 761 x 788 km, 74.0° (Epoch: 08 July)

Event Time Altitude Azimuth Distance (km) Brightness Sun altitude
Exits shadow 14:02:23 47° 169° (S) 1,027 3.7 -21.2°
Maximum altitude 14:03:47 67° 107° (ESE) 849 3.5 -21.3°
Drops below altitude 10° 14:09:06 10° 26° (NNE) 2,356 6.7 -21.5°
Sets 14:11:31 0° 24° (NNE) 3,291 7.7 -21.6°
